Location: Asheville, NC
(35.6000°N, 82.5500°W)
Time: 09:20:32
(UTC-04:00)

Vanguard 2 - Pass Details

Date: 10 March 2018
Orbit: 554 x 2939 km, 32.9° (Epoch: 24 June)

Event Time Altitude Azimuth Distance (km) Brightness Sun altitude
Rises 12:10:09 0° 243° (WSW) 6,022 12.2 49.8°
Reaches altitude 10° 12:13:46 10° 241° (WSW) 5,240 12.1 50.0°
Maximum altitude 12:30:18 70° 162° (SSE) 3,059 12.2 50.4°
Drops below altitude 10° 12:47:18 10° 83° (E) 5,374 11.9 50.5°
Sets 12:51:03 0° 81° (E) 6,177 12.1 50.4°
